This is the latest recevied weather packets stored in our database for station/object AG7BI. If no packets are shown the sender has not sent any weather packets the latest 10 day(s).
| Time | Temp. | Humidity | Pressure | Rain* | Wind** | Luminosity | Snow |
|---|---|---|---|---|---|---|---|
| 1777789252 | 12.78° C | 67% | 1014.9 hPa | 0 mm | - | - | - |
| 1777788952 | 13.33° C | 66% | 1014.8 hPa | 0 mm | - | - | - |
| 1777788652 | 13.33° C | 67% | 1015 hPa | 0 mm | - | - | - |
| 1777788352 | 13.33° C | 64% | 1014.9 hPa | 0 mm | - | - | - |
| 1777788052 | 13.33° C | 64% | 1015 hPa | 0 mm | - | - | - |
| 1777787752 | 13.89° C | 63% | 1014.8 hPa | 0 mm | - | - | - |
| 1777787452 | 13.89° C | 62% | 1014.7 hPa | 0 mm | - | - | - |
| 1777787152 | 14.44° C | 64% | 1014.7 hPa | 0 mm | - | - | - |
| 1777786852 | 15° C | 61% | 1015 hPa | 0 mm | - | - | - |
| 1777786552 | 15.56° C | 62% | 1014.7 hPa | 0 mm | - | - | - |
| 1777786252 | 15.56° C | 59% | 1014.6 hPa | 0 mm | - | - | - |
| 1777785952 | 16.11° C | 57% | 1014.6 hPa | 0 mm | - | - | - |
| 1777785652 | 16.11° C | 54% | 1014.7 hPa | 0 mm | - | - | - |
| 1777785352 | 16.11° C | 53% | 1014.6 hPa | 0 mm | - | - | - |
| 1777785052 | 16.67° C | 53% | 1014.5 hPa | 0 mm | - | - | - |
| 1777784752 | 16.67° C | 53% | 1014.5 hPa | 0 mm | - | - | - |
| 1777784452 | 16.67° C | 52% | 1014.7 hPa | 0 mm | - | - | - |
| 1777784152 | 16.67° C | 52% | 1014.5 hPa | 0 mm | - | - | - |
| 1777783852 | 16.67° C | 51% | 1014.7 hPa | 0 mm | - | - | - |
| 1777783552 | 16.67° C | 51% | 1014.5 hPa | 0 mm | - | - | - |
| 1777783252 | 16.67° C | 52% | 1014.4 hPa | 0 mm | - | - | - |
| 1777782952 | 16.67° C | 52% | 1014.4 hPa | 0 mm | - | - | - |
| 1777782652 | 16.67° C | 52% | 1014.4 hPa | 0 mm | - | - | - |
| 1777782352 | 16.67° C | 50% | 1014.3 hPa | 0 mm | - | - | - |
| 1777782052 | 16.67° C | 51% | 1014.2 hPa | 0 mm | - | - | - |
* Rain latest hour (hover to see other rain measurements)
** Current wind speed in m/s (hover to see current wind gust speed)